User: anonymous   Login
Location: Unspecified
(0.0000°N, 0.0000°E)
Time: 08:41:43
(UTC+02:00)
Language:

SeaSat 1 - Orbit

View from above orbital plane
View from above orbital plane
View from above satellite
View from above satellite

Ground track
Ground track

The orbit data is extracted from the following two-line orbital elements,

1 10967U 78064A   14295.44727241  .00000643  00000-0  23174-3 0  4202
2 10967 107.9938 076.5975 0001433 250.3552 156.1881 14.43117463906834
Epoch (UTC): 22 October 2014 10:44:04
Eccentricity: 0.0001433
inclination: 107.9938°
perigee height: 747 km
apogee height: 749 km
right ascension of ascending node: 76.5975°
argument of perigee: 250.3552°
revolutions per day: 14.43117463
mean anomaly at epoch: 156.1881°
orbit number at epoch: 90683

The dashed part of the orbit path shows where the satellite is in the earth's shadow,  

DLR